GW2273 Weather Reports


time (UTC)temp
C
wind
direction
speed
KPH
gust
KPH
rain 1hr
cm
rain 24hr
cm
rain mn
cm
humidity
%
barometer
mb
20260506051003 10 44 12.9 32.2 0.00 0.00 0.00 73 1013.3
20260506050503 10 41 9.7 22.5 0.00 0.00 0.00 73 1013.5
20260506045003 10 33 14.5 30.6 0.00 0.00 0.00 72 1013.6
20260506044524 10 36 12.9 30.6 0.00 0.00 0.00 72 1013.5
20260506044003 10 43 11.3 30.6 0.00 0.00 0.00 72 1013.6
20260506043503 10 44 9.7 25.7 0.00 0.00 0.00 72 1013.6
20260506043003 10 38 8.0 20.9 0.00 0.00 0.00 73 1013.6
20260506042503 10 36 8.0 20.9 0.00 0.00 0.00 73 1013.7
20260506042003 10 36 9.7 22.5 0.00 0.00 0.00 73 1013.8
20260506041503 10 40 9.7 22.5 0.00 0.00 0.00 73 1013.6
20260506041003 10 40 9.7 17.7 0.00 0.00 0.00 72 1013.6
20260506040503 10 42 8.0 17.7 0.00 0.00 0.00 72 1013.5
20260506040024 10 47 11.3 25.7 0.00 0.00 0.00 72 1013.5
20260506035503 10 47 12.9 32.2 0.00 0.00 0.00 72 1013.3
20260506035003 10 47 12.9 32.2 0.00 0.00 0.00 72 1013.2
20260506034503 10 45 11.3 24.1 0.00 0.00 0.00 72 1013.1
20260506034003 10 46 12.9 27.4 0.00 0.00 0.00 72 1012.9
20260506033503 10 51 14.5 29.0 0.00 0.00 0.00 72 1012.9
20260506033003 10 50 12.9 29.0 0.00 0.00 0.00 71 1012.8
20260506032503 10 48 12.9 24.1 0.00 0.00 0.00 72 1012.9
20260506032003 10 52 12.9 25.7 0.00 0.00 0.00 72 1012.8
20260506031503 11 54 11.3 25.7 0.00 0.00 0.00 72 1012.7
20260506031003 11 52 14.5 35.4 0.00 0.00 0.00 71 1012.5
20260506030503 11 51 14.5 35.4 0.00 0.00 0.00 71 1012.4
20260506030024 11 53 12.9 24.1 0.00 0.00 0.00 70 1012.1
20260506025503 11 61 11.3 24.1 0.00 0.00 0.00 69 1012.2
20260506025003 11 64 11.3 24.1 0.00 0.00 0.00 69 1012.0
20260506024503 11 56 14.5 27.4 0.00 0.00 0.00 68 1011.9
20260506024003 11 58 12.9 27.4 0.00 0.00 0.00 68 1012.0
20260506023503 11 64 12.9 24.1 0.00 0.00 0.00 67 1011.8
20260506023003 12 61 11.3 24.1 0.00 0.00 0.00 67 1011.9
20260506022503 12 49 11.3 24.1 0.00 0.00 0.00 66 1011.8
20260506022003 12 57 11.3 24.1 0.00 0.00 0.00 66 1011.8
20260506021503 12 61 11.3 24.1 0.00 0.00 0.00 66 1011.8
20260506021003 12 54 11.3 24.1 0.00 0.00 0.00 65 1011.3
20260506020503 12 72 8.0 20.9 0.00 0.00 0.00 65 1011.4
20260506020003 12 76 8.0 17.7 0.00 0.00 0.00 65 1011.4
20260506015503 12 69 8.0 19.3 0.00 0.00 0.00 65 1011.4
20260506015024 12 74 8.0 19.3 0.00 0.00 0.00 65 1011.2
20260506014503 13 61 11.3 20.9 0.00 0.00 0.00 65 1011.2
20260506014024 13 57 11.3 20.9 0.00 0.00 0.00 65 1010.8
20260506013524 13 54 12.9 25.7 0.00 0.00 0.00 65 1010.7
20260506013024 13 50 12.9 25.7 0.00 0.00 0.00 65 1010.7
20260506012524 13 49 11.3 22.5 0.00 0.00 0.00 65 1010.8
20260506012003 13 45 12.9 22.5 0.00 0.00 0.00 65 1010.8
20260506011503 13 47 12.9 22.5 0.00 0.00 0.00 64 1010.7
20260506011003 13 50 11.3 22.5 0.00 0.00 0.00 65 1010.8
20260506010524 13 53 9.7 22.5 0.00 0.00 0.00 64 1010.5
20260506010003 13 53 9.7 22.5 0.00 0.00 0.00 64 1010.5
20260506005524 13 52 9.7 22.5 0.00 0.00 0.00 64 1010.5
20260506005003 13 57 9.7 19.3 0.00 0.00 0.00 64 1010.6
20260506004524 14 57 9.7 19.3 0.00 0.00 0.00 64 1010.6
20260506004003 14 47 8.0 22.5 0.00 0.00 0.00 64 1010.3
20260506003503 14 42 9.7 25.7 0.00 0.00 0.00 64 1010.2
20260506003003 14 41 11.3 27.4 0.00 0.00 0.00 64 1010.1
20260506002503 14 41 12.9 27.4 0.00 0.00 0.00 64 1010.1
20260506002003 14 44 9.7 20.9 0.00 0.00 0.00 64 1010.0
20260506001503 14 49 11.3 30.6 0.00 0.00 0.00 64 1010.0
20260506001003 14 50 14.5 30.6 0.00 0.00 0.00 64 1009.6
20260506000503 14 45 14.5 30.6 0.00 0.00 0.00 64 1009.6
20260506000003 14 39 12.9 30.6 0.00 0.00 0.00 64 1009.6
20260505235503 14 37 12.9 29.0 0.00 0.00 0.00 64 1009.6
20260505235003 14 31 14.5 27.4 0.00 0.00 0.00 64 1009.6
20260505234503 14 27 12.9 24.1 0.00 0.00 0.00 63 1009.6
20260505234003 14 31 12.9 25.7 0.00 0.00 0.00 63 1009.9
20260505233503 14 20 12.9 25.7 0.00 0.00 0.00 63 1009.7
20260505233003 15 18 12.9 27.4 0.00 0.00 0.00 62 1009.6
20260505232503 15 28 14.5 27.4 0.00 0.00 0.00 62 1009.6
20260505232003 15 35 14.5 30.6 0.00 0.00 0.00 62 1009.5
20260505231503 15 41 14.5 30.6 0.00 0.00 0.00 62 1009.4
20260505231024 15 30 12.9 27.4 0.00 0.00 0.00 61 1009.5
20260505230503 15 11 11.3 24.1 0.00 0.00 0.00 61 1009.7
20260505230003 15 19 11.3 24.1 0.00 0.00 0.00 61 1009.7
20260505225524 15 31 11.3 25.7 0.00 0.00 0.00 61 1009.7
20260505225003 15 36 11.3 25.7 0.00 0.00 0.00 61 1009.8
20260505224524 15 34 12.9 25.7 0.00 0.00 0.00 61 1009.7
20260505224003 15 20 12.9 22.5 0.00 0.00 0.00 61 1009.6
20260505223503 15 18 11.3 22.5 0.00 0.00 0.00 61 1009.7
20260505223003 16 10 11.3 20.9 0.00 0.00 0.00 60 1010.2
20260505222524 16 3 12.9 24.1 0.00 0.00 0.00 60 1010.0
20260505222003 16 12 11.3 24.1 0.00 0.00 0.00 60 1009.9
20260505221503 16 7 9.7 20.9 0.00 0.00 0.00 59 1009.8
20260505221003 16 359 8.0 17.7 0.00 0.00 0.00 59 1010.1
20260505220524 16 359 8.0 17.7 0.00 0.00 0.00 58 1010.1
20260505220003 16 1 9.7 20.9 0.00 0.00 0.00 59 1010.2
20260505215503 17 2 9.7 22.5 0.00 0.00 0.00 58 1010.0
20260505215003 17 6 9.7 22.5 0.00 0.00 0.00 56 1010.3
20260505214503 17 356 12.9 20.9 0.00 0.00 0.00 56 1010.2
20260505214003 17 3 12.9 20.9 0.00 0.00 0.00 56 1010.1
20260505213524 17 14 11.3 20.9 0.00 0.00 0.00 55 1010.0
20260505213003 17 355 9.7 20.9 0.00 0.00 0.00 55 1010.0
20260505212503 18 352 8.0 20.9 0.00 0.00 0.00 55 1010.0
20260505212003 18 348 8.0 17.7 0.00 0.00 0.00 55 1010.0
20260505211503 17 338 11.3 20.9 0.00 0.00 0.00 55 1010.1
20260505211024 18 340 11.3 20.9 0.00 0.00 0.00 54 1010.0
20260505210503 18 347 9.7 24.1 0.00 0.00 0.00 54 1009.9
20260505210003 18 352 11.3 25.7 0.00 0.00 0.00 54 1009.7
20260505205503 18 348 12.9 25.7 0.00 0.00 0.00 53 1009.6
20260505205003 18 341 14.5 24.1 0.00 0.00 0.00 54 1010.0
20260505204524 18 342 14.5 25.7 0.00 0.00 0.00 53 1010.0
20260505204003 18 352 12.9 25.7 0.00 0.00 0.00 53 1010.1
20260505203503 18 348 11.3 24.1 0.00 0.00 0.00 53 1010.0
20260505203003 18 345 12.9 24.1 0.00 0.00 0.00 53 1009.9
20260505202503 19 7 12.9 38.6 0.00 0.00 0.00 52 1009.8
20260505202003 19 9 14.5 38.6 0.00 0.00 0.00 52 1009.7
20260505201503 19 360 12.9 29.0 0.00 0.00 0.00 50 1009.5
20260505201003 19 9 12.9 29.0 0.00 0.00 0.00 51 1009.3
20260505200524 19 360 11.3 27.4 0.00 0.00 0.00 49 1009.2
20260505200003 19 346 11.3 27.4 0.00 0.00 0.00 49 1009.2
20260505195524 20 348 11.3 25.7 0.00 0.00 0.00 48 1009.5
20260505195003 20 343 12.9 24.1 0.00 0.00 0.00 48 1009.4
20260505194503 20 343 11.3 24.1 0.00 0.00 0.00 47 1009.4
20260505194003 19 345 9.7 22.5 0.00 0.00 0.00 48 1009.5
20260505193503 19 347 9.7 20.9 0.00 0.00 0.00 47 1009.6
20260505193003 19 345 11.3 24.1 0.00 0.00 0.00 49 1009.4
20260505192503 19 341 14.5 27.4 0.00 0.00 0.00 48 1009.4
20260505192003 18 346 16.1 27.4 0.00 0.00 0.00 48 1009.1
20260505191503 18 350 14.5 27.4 0.00 0.00 0.00 49 1008.9
20260505191024 18 345 14.5 27.4 0.00 0.00 0.00 50 1009.0
20260505190503 18 347 16.1 27.4 0.00 0.00 0.00 49 1009.1
20260505190003 18 348 14.5 27.4 0.00 0.00 0.00 50 1009.0
20260505185503 18 349 14.5 25.7 0.00 0.00 0.00 49 1009.0
20260505185003 18 345 12.9 25.7 0.00 0.00 0.00 49 1009.5
20260505184503 19 335 11.3 24.1 0.00 0.00 0.00 49 1009.4
20260505184024 19 342 11.3 24.1 0.00 0.00 0.00 50 1009.4
20260505183503 18 349 12.9 27.4 0.00 0.00 0.00 50 1009.8
20260505183003 19 344 12.9 27.4 0.00 0.00 0.00 49 1009.9
20260505182503 18 351 12.9 24.1 0.00 0.00 0.00 49 1010.0
20260505182003 19 2 9.7 20.9 0.00 0.00 0.00 49 1010.0
20260505181503 19 351 9.7 24.1 0.00 0.00 0.00 49 1010.2
20260505181003 18 346 11.3 24.1 0.00 0.00 0.00 50 1010.3
20260505180503 19 344 12.9 25.7 0.00 0.00 0.00 50 1010.2
20260505180003 19 350 12.9 25.7 0.00 0.00 0.00 50 1009.8
20260505175524 19 355 11.3 22.5 0.00 0.00 0.00 50 1009.9
20260505175003 20 346 12.9 29.0 0.00 0.00 0.00 49 1009.7
20260505174503 20 350 11.3 29.0 0.00 0.00 0.00 49 1010.2
20260505174024 19 3 9.7 22.5 0.00 0.00 0.00 51 1009.6
20260505173524 18 3 9.7 22.5 0.00 0.00 0.00 52 1009.5
20260505173003 18 353 11.3 25.7 0.00 0.00 0.00 52 1009.2
20260505172524 18 354 11.3 25.7 0.00 0.00 0.00 54 1008.9
20260505172003 18 2 12.9 30.6 0.00 0.00 0.00 54 1008.6
20260505171503 18 350 14.5 30.6 0.00 0.00 0.00 55 1008.7
20260505171003 18 345 14.5 30.6 0.00 0.00 0.00 54 1008.9
20260505170524 18 351 12.9 30.6 0.00 0.00 0.00 54 1008.7
20260505170003 18 342 12.9 27.4 0.00 0.00 0.00 55 1009.1
20260505165503 18 339 16.1 27.4 0.00 0.00 0.00 55 1009.0
20260505165003 18 344 17.7 35.4 0.00 0.00 0.00 56 1009.0
20260505164503 18 343 16.1 35.4 0.00 0.00 0.00 56 1008.8
20260505164003 19 346 12.9 27.4 0.00 0.00 0.00 55 1008.6
20260505163524 19 347 12.9 25.7 0.00 0.00 0.00 56 1008.6
20260505163024 18 340 12.9 25.7 0.00 0.00 0.00 58 1008.6
20260505162503 18 343 12.9 29.0 0.00 0.00 0.00 58 1008.4
20260505162003 18 349 14.5 29.0 0.00 0.00 0.00 59 1008.1
20260505161503 18 351 12.9 25.7 0.00 0.00 0.00 59 1007.9
20260505161003 18 348 12.9 27.4 0.00 0.00 0.00 61 1007.8
20260505160503 18 345 12.9 27.4 0.00 0.00 0.00 61 1007.7
20260505153024 20 338 16.1 25.7 0.00 0.00 0.00 62 1007.0
20260505152503 20 335 16.1 25.7 0.00 0.00 0.00 63 1006.8
20260505152024 20 334 16.1 25.7 0.00 0.00 0.00 64 1006.7
20260505151503 20 332 17.7 30.6 0.00 0.00 0.00 64 1006.6
20260505151003 20 333 17.7 30.6 0.00 0.00 0.00 63 1006.2
20260505150503 20 336 16.1 27.4 0.00 0.00 0.00 64 1006.1
20260505140503 20 342 14.5 27.4 0.00 0.00 0.00 65 1005.7
20260505125003 21 299 8.0 17.7 0.00 0.00 0.00 30 1003.4
20260505124524 21 289 6.4 14.5 0.00 0.00 0.00 30 1003.5
20260505124003 21 285 4.8 14.5 0.00 0.00 0.00 31 1003.3
20260505123503 21 284 4.8 14.5 0.00 0.00 0.00 31 1003.4
20260505123003 21 286 4.8 12.9 0.00 0.00 0.00 30 1003.0
20260505122503 21 288 4.8 12.9 0.00 0.00 0.00 31 1003.0
20260505122003 21 276 4.8 12.9 0.00 0.00 0.00 30 1002.8
20260505121503 21 244 3.2 12.9 0.00 0.00 0.00 30 1002.7
20260505121003 21 229 3.2 12.9 0.00 0.00 0.00 30 1002.7
20260505120503 21 228 3.2 11.3 0.00 0.00 0.00 30 1002.6
20260505120003 21 224 1.6 11.3 0.00 0.00 0.00 30 1002.5
20260505115503 21 222 1.6 9.7 0.00 0.00 0.00 30 1002.6
20260505115003 21 235 1.6 9.7 0.00 0.00 0.00 30 1002.5
20260505114503 21 238 1.6 11.3 0.00 0.00 0.00 30 1002.4
20260505114003 21 223 1.6 11.3 0.00 0.00 0.00 29 1002.4
20260505113503 22 223 3.2 9.7 0.00 0.00 0.00 29 1002.3
20260505113024 22 237 3.2 16.1 0.00 0.00 0.00 29 1002.2
20260505112503 22 231 4.8 16.1 0.00 0.00 0.00 29 1002.2
20260505112003 22 215 6.4 14.5 0.00 0.00 0.00 29 1001.9
20260505111503 22 210 6.4 14.5 0.00 0.00 0.00 29 1001.9
20260505111003 22 208 4.8 14.5 0.00 0.00 0.00 29 1001.8
20260505110524 22 222 4.8 12.9 0.00 0.00 0.00 29 1001.8
20260505102003 22 207 4.8 14.5 0.00 0.00 0.00 27 1001.5
20260505101503 22 202 6.4 14.5 0.00 0.00 0.00 26 1001.4
20260505101024 22 204 6.4 14.5 0.00 0.00 0.00 26 1001.4
20260505100503 22 206 6.4 14.5 0.00 0.00 0.00 26 1001.5
20260505100003 22 204 6.4 14.5 0.00 0.00 0.00 27 1001.4
20260505095503 22 204 6.4 14.5 0.00 0.00 0.00 27 1001.4
20260505095003 22 201 6.4 14.5 0.00 0.00 0.00 27 1001.4
20260505094503 22 201 6.4 14.5 0.00 0.00 0.00 27 1001.3
20260505094003 22 199 8.0 14.5 0.00 0.00 0.00 27 1001.3
20260505093524 22 199 6.4 14.5 0.00 0.00 0.00 27 1001.3
20260505093003 22 197 6.4 14.5 0.00 0.00 0.00 27 1001.2
20260505092503 22 196 6.4 14.5 0.00 0.00 0.00 27 1001.0
20260505092003 22 197 8.0 17.7 0.00 0.00 0.00 27 1001.1
20260505091503 22 198 8.0 17.7 0.00 0.00 0.00 27 1001.1
20260505091003 22 199 6.4 16.1 0.00 0.00 0.00 27 1001.2
20260505090503 22 199 6.4 16.1 0.00 0.00 0.00 27 1001.3
20260505090003 22 199 6.4 19.3 0.00 0.00 0.00 27 1001.2
20260505085503 22 204 6.4 19.3 0.00 0.00 0.00 27 1001.3
20260505085003 22 201 8.0 19.3 0.00 0.00 0.00 28 1001.3
20260505084503 22 193 8.0 17.7 0.00 0.00 0.00 28 1001.4
20260505084003 22 192 6.4 16.1 0.00 0.00 0.00 28 1001.4
20260505083503 22 194 6.4 11.3 0.00 0.00 0.00 28 1001.3
20260505083003 23 196 4.8 12.9 0.00 0.00 0.00 28 1001.5
20260505082524 23 198 4.8 12.9 0.00 0.00 0.00 28 1001.4
20260505082003 23 198 3.2 9.7 0.00 0.00 0.00 28 1001.5
20260505081503 23 191 3.2 9.7 0.00 0.00 0.00 28 1001.6
20260505081003 23 194 4.8 14.5 0.00 0.00 0.00 28 1001.5
20260505080503 23 197 4.8 14.5 0.00 0.00 0.00 29 1001.7
20260505080003 23 195 6.4 12.9 0.00 0.00 0.00 29 1001.7
20260505075503 23 194 6.4 12.9 0.00 0.00 0.00 29 1001.7
20260505075003 23 193 4.8 11.3 0.00 0.00 0.00 29 1001.7
20260505074503 23 197 4.8 11.3 0.00 0.00 0.00 28 1001.8
20260505074003 23 198 4.8 11.3 0.00 0.00 0.00 28 1001.9
20260505073524 23 198 6.4 11.3 0.00 0.00 0.00 27 1001.9
20260505073003 24 203 3.2 11.3 0.00 0.00 0.00 27 1002.0
20260505072503 24 209 3.2 8.0 0.00 0.00 0.00 26 1001.8
20260505072003 24 209 3.2 9.7 0.00 0.00 0.00 26 1001.9
20260505071503 25 202 6.4 14.5 0.00 0.00 0.00 26 1002.0
20260505071003 25 196 6.4 14.5 0.00 0.00 0.00 25 1002.1
20260505070503 25 198 4.8 11.3 0.00 0.00 0.00 25 1002.1
20260505070003 25 198 4.8 14.5 0.00 0.00 0.00 24 1002.0
20260505065524 25 198 4.8 14.5 0.00 0.00 0.00 24 1002.3
20260505065003 26 225 3.2 11.3 0.00 0.00 0.00 23 1002.2
20260505064503 26 256 3.2 11.3 0.00 0.00 0.00 23 1002.1
20260505064003 26 261 3.2 9.7 0.00 0.00 0.00 23 1002.2
20260505063503 26 265 3.2 14.5 0.00 0.00 0.00 23 1002.3
20260505063003 26 262 3.2 14.5 0.00 0.00 0.00 24 1002.3
20260505062503 26 250 3.2 14.5 0.00 0.00 0.00 24 1002.4
20260505062003 26 249 3.2 9.7 0.00 0.00 0.00 24 1002.4
20260505061503 26 243 3.2 11.3 0.00 0.00 0.00 24 1002.5
20260505061003 26 235 1.6 11.3 0.00 0.00 0.00 25 1002.6
20260505060503 25 209 1.6 11.3 0.00 0.00 0.00 25 1002.7